Location: Lachepaillet
(43.4918°N, 1.4874°W)
Time: 23:19:53
(UTC+00:00)

CZ-4B R/B - Pass Details

Date: 15 May 2026
Orbit: 700 x 797 km, 98.9° (Epoch: 11 June)

Event Time Altitude Azimuth Distance (km) Brightness Sun altitude
Exits shadow 21:23:17 33° 139° (SE) 1,178 3.9 -17.6°
Maximum altitude 21:25:17 62° 72° (ENE) 801 3.4 -17.9°
Drops below altitude 10° 21:30:04 10° 352° (N) 2,218 6.8 -18.4°
Sets 21:32:23 0° 350° (N) 3,156 7.8 -18.6°
